Location: Brachstadt
(48.6975°N, 10.6755°E)
Time: 23:22:40
(UTC+00:00)

Cosmos 1300 Rocket - Pass Details

Date: 18 September 2020
Orbit: 601 x 627 km, 82.5° (Epoch: 31 October)

Event Time Altitude Azimuth Distance (km) Brightness Sun altitude
Rises 18:16:44 0° 165° (SSE) 2,876 6.7 -9.6°
Reaches altitude 10° 18:19:05 10° 156° (SSE) 1,980 5.8 -10.0°
Maximum altitude 18:23:04 35° 91° (E) 1,017 4.2 -10.6°
Drops below altitude 10° 18:27:06 10° 26° (NNE) 2,008 6.1 -11.3°
Sets 18:29:29 0° 18° (NNE) 2,923 7.0 -11.6°
